DW3422 Weather Reports


time (UTC)temp
C
wind
direction
speed
KPH
gust
KPH
rain 1hr
cm
rain 24hr
cm
rain mn
cm
humidity
%
barometer
mb
20260505121516 12 175 6.4 0.0 0.00 0.00 0.00 85 1013.1
20260505120014 12 192 6.4 0.0 0.00 0.00 0.00 85 1013.1
20260505114516 12 160 6.4 0.0 0.00 0.00 0.00 85 1013.1
20260505113017 12 189 8.0 0.0 0.00 0.00 0.00 85 1012.9
20260505111510 12 207 8.0 0.0 0.00 0.00 0.00 85 1012.9
20260505101502 12 148 8.0 0.0 0.00 0.00 0.00 86 1012.3
20260505094558 12 150 6.4 0.0 0.00 0.00 0.00 86 1012.2
20260505093055 12 161 3.2 0.0 0.00 0.00 0.00 85 1012.0
20260505091552 13 142 6.4 0.0 0.00 0.00 0.00 85 1012.0
20260505084553 13 119 4.8 0.0 0.00 0.00 0.00 84 1011.7
20260505083055 13 164 4.8 0.0 0.00 0.00 0.00 84 1011.6
20260505081547 13 146 6.4 0.0 0.00 0.00 0.00 83 1011.5
20260505080042 13 167 4.8 0.0 0.00 0.00 0.00 83 1011.5
20260505074541 13 165 4.8 0.0 0.00 0.00 0.00 82 1011.4
20260505073040 14 164 6.4 0.0 0.00 0.00 0.00 81 1011.2
20260505071535 14 203 4.8 0.0 0.00 0.00 0.00 80 1011.1
20260505070034 15 178 6.4 0.0 0.00 0.00 0.00 79 1010.9
20260505064533 15 169 4.8 0.0 0.00 0.00 0.00 77 1010.7
20260505063031 16 161 4.8 0.0 0.00 0.00 0.00 76 1010.6
20260505061531 16 177 4.8 0.0 0.00 0.00 0.00 75 1010.5
20260505060033 16 190 4.8 0.0 0.00 0.00 0.00 74 1010.3
20260505054536 17 172 3.2 0.0 0.00 0.00 0.00 73 1010.3
20260505053033 17 169 4.8 0.0 0.00 0.00 0.00 71 1010.1
20260505051526 18 170 4.8 0.0 0.00 0.00 0.00 69 1010.0
20260505041524 20 152 1.6 0.0 0.00 0.00 0.00 63 1009.3
20260505040024 21 155 1.6 0.0 0.00 0.00 0.00 62 1009.0
20260505034523 21 149 0.0 0.0 0.00 0.00 0.00 60 1008.8
20260505033025 22 150 0.0 0.0 0.00 0.00 0.00 60 1008.6
20260505031522 22 151 1.6 0.0 0.00 0.00 0.00 57 1008.4
20260505030027 23 149 1.6 0.0 0.00 0.00 0.00 55 1008.3
20260505024522 23 126 3.2 0.0 0.00 0.00 0.00 53 1008.0
20260505023022 24 195 3.2 0.0 0.00 0.00 0.00 51 1007.9
20260505021520 24 171 4.8 0.0 0.00 0.00 0.00 48 1008.0
20260505020019 25 198 3.2 0.0 0.00 0.00 0.00 43 1007.9
20260505014519 25 163 4.8 0.0 0.00 0.00 0.00 43 1007.9
20260505013018 25 189 4.8 0.0 0.00 0.00 0.00 42 1007.9
20260505011520 25 154 4.8 0.0 0.00 0.00 0.00 40 1008.1
20260505010017 25 178 4.8 0.0 0.00 0.00 0.00 40 1008.2
20260505004534 25 172 4.8 0.0 0.00 0.00 0.00 39 1008.1
20260505003015 26 194 4.8 0.0 0.00 0.00 0.00 38 1008.2
20260505001515 26 183 3.2 0.0 0.00 0.00 0.00 39 1008.2
20260505000020 26 153 4.8 0.0 0.00 0.00 0.00 38 1008.3
20260504234525 26 199 3.2 0.0 0.00 0.00 0.00 35 1008.5
20260504233013 26 192 4.8 0.0 0.00 0.00 0.00 36 1008.5
20260504231531 26 239 4.8 0.0 0.00 0.00 0.00 35 1008.5
20260504230013 26 255 6.4 0.0 0.00 0.00 0.00 34 1008.6
20260504224511 26 205 3.2 0.0 0.00 0.00 0.00 35 1008.8
20260504223011 26 42 4.8 0.0 0.00 0.00 0.00 33 1009.0
20260504221510 26 9 3.2 0.0 0.00 0.00 0.00 36 1009.2
20260504220010 26 292 4.8 0.0 0.00 0.00 0.00 41 1009.3
20260504214515 26 194 4.8 0.0 0.00 0.00 0.00 40 1009.5
20260504213009 26 182 4.8 0.0 0.00 0.00 0.00 39 1009.5
20260504211508 26 278 3.2 0.0 0.00 0.00 0.00 46 1009.4
20260504210010 26 196 4.8 0.0 0.00 0.00 0.00 41 1009.6
20260504204502 25 189 3.2 0.0 0.00 0.00 0.00 44 1009.7
20260504203002 25 325 3.2 0.0 0.00 0.00 0.00 45 1009.7
20260504201602 25 219 3.2 0.0 0.00 0.00 0.00 44 1009.7
20260504194558 24 165 4.8 0.0 0.00 0.00 0.00 47 1009.7
20260504193054 24 158 4.8 0.0 0.00 0.00 0.00 48 1009.7
20260504191552 23 327 3.2 0.0 0.00 0.00 0.00 43 1009.9
20260504190056 23 182 3.2 0.0 0.00 0.00 0.00 48 1009.9
20260504184600 22 188 4.8 0.0 0.00 0.00 0.00 48 1010.1
20260504183046 22 170 3.2 0.0 0.00 0.00 0.00 52 1010.0
20260504181538 21 167 3.2 0.0 0.00 0.00 0.00 56 1010.1
20260504180034 20 194 4.8 0.0 0.00 0.00 0.00 59 1010.1
20260504174530 19 169 4.8 0.0 0.00 0.00 0.00 60 1010.2
20260504173027 18 167 4.8 0.0 0.00 0.00 0.00 63 1010.1
20260504171537 18 186 3.2 0.0 0.00 0.00 0.00 63 1010.1